Flag for Bulgaria Weather past 2 weeks in Plovdiv, Bulgaria

Now
41 °F

Light rain. Fog.


Feels Like: 41 °F
Forecast: 32 / 51 °F
Wind: No wind

Location: Plovdiv Airport

Current Time: Dec 18, 2014 at 3:13:28 AM

Latest Report: Dec 18, 2014 at 2:00 AM


Visibility: 1 mi

Pressure: 29.92 "Hg

Humidity: 93%

Dew point: 39 °F

Location of PlovdivLocation

Historic Weather in Plovdiv — Graph

°F

Plovdiv temperature yesterday

Maximum temperature yesterday: 41 °F (at 3:00 PM)
Minimum temperature yesterday: 34 °F (at 12:00 AM)
Average temperature yesterday: 37 °F

Past Weeks' High & Low Weather Summary

 TemperatureHumidityPressure
High54 °F (Dec 12, 2:00 PM)100% (Dec 3, 2:00 AM)30.33 "Hg (Dec 3, 2:00 AM)
Low28 °F (Dec 14, 7:00 AM)54% (Dec 12, 3:00 PM)29.77 "Hg (Dec 9, 5:00 AM)
Average42 °F92%30.10 "Hg
* Reported Dec 3 1:00 AM — Dec 18 1:00 AM, Plovdiv, Weather by CustomWeather, © 2014

Note: Actual official high and low records may vary slightly from our data, if they occured in-between our weather recording intervals... More about our weather records

Advertising

Plovdiv weather history for previous 24 hours

 ConditionsComfort  
Time TempWeatherWind HumidityBarometerVisibility
1:00 AM
Dec 18
39 °FLight rain. Fog.3 mph100%29.92 "Hg2 mi
12:00 AM41 °FFog.1 mph93%29.92 "Hg2 mi
11:00 PM
Dec 17
39 °FFog.No wind100%29.95 "Hg2 mi
10:00 PM39 °FFog.No wind100%29.95 "Hg2 mi
9:57 PM39 °FFog.No wind100%29.92 "Hg2 mi
9:00 PM39 °FFog.No wind100%29.95 "Hg2 mi
8:00 PM39 °FFog.No wind93%29.95 "Hg2 mi
7:00 PM39 °FFog.No wind93%29.95 "Hg2 mi
6:00 PM39 °FFog.3 mph100%29.92 "Hg3 mi
5:00 PM39 °FFog.No wind100%29.92 "Hg2 mi
4:00 PM41 °FFog.No wind93%29.92 "Hg3 mi
3:00 PM41 °FBroken clouds.1 mph93%29.95 "Hg4 mi
2:00 PM39 °FPartly sunny.No wind93%29.95 "Hg4 mi
1:00 PM39 °FLight rain. Partly sunny.3 mph100%29.98 "Hg3 mi
12:00 PM37 °FLight rain. Fog.1 mph100%30.01 "Hg2 mi
11:00 AM37 °FLight rain. Fog.1 mph93%30.04 "Hg2 mi
10:00 AM36 °FLight rain. Fog.1 mph100%30.04 "Hg1 mi
9:00 AM36 °FLight rain. Fog.3 mph100%30.04 "Hg1 mi
8:00 AM36 °FRain. Fog.1 mph93%30.04 "Hg1 mi
7:00 AM36 °FLight rain. Fog.3 mph93%30.04 "Hg2 mi
6:00 AM34 °FFog.3 mph100%30.04 "Hg2 mi
5:00 AM34 °FFog.3 mph100%30.04 "Hg1 mi
4:00 AM34 °FFog.3 mph100%30.04 "Hg1 mi
3:00 AM34 °FFog.3 mph100%30.07 "Hg2 mi
Weather by CustomWeather, © 2014

See weather overviewHow to use our weather pages